Starlink 30905

operational
NORAD ID: 58356 Int'l Des: 2023-177 Owner: SPXS Country: US Constellation: starlink
LEOCIRCULAR

Starlink 30905について

説明を読み込み中...

リアルタイム位置

3D地球を読み込み中...

次回通過

高度履歴

Altitude vs Time

uPlot chart will show altitude changes over time

軌道要素

1 58356U 23177F 25303.53233673 .00000257 00000-0 34109-4 0 9997
2 58356 43.0044 339.0623 0000943 271.5265 88.5469 15.02536076108570
Epoch: Oct 30, 2025 • Age: 31 hours

現在のステータス

高度 562.8 km
速度 7.59 km/s
衛星直下点 42.90°N, 96.8°E
打ち上げ日 Nov 18, 2023
運用期間 1.9 years
タイプ internet

技術仕様

分類 Payload
質量 730.00 kg
乾燥質量 700.00 kg
総質量 730.00 kg
長さ 0.30 m
直径 4.10 m
スパン 29.00 m
形状 Box + pan
製造者 SPXS
バスタイプ Starlink V2M
フェーズステータス In Orbit
所有者/国 SPXS/US

大規模コンステレーション

Loading constellations...